Date String (YYYY-MM-DD hh:mm:ss) UTC,Instrument flags,Ambient pressure (hPa),Sample flow (lpm),Bypass flow (lpm),Sample temperature (°C),Ambient temperature (°C),ASC tube jacket temperature (°C),LED temperature (°C),Box temperature (°C),Sample RH (%),Span deviation,Mass concentration (μg/m³),Mass concentration (μg/m³),Mass concentration (μg/m³)
DateTimeUTC,F1_M11,P_M11,Q1_M11,Q2_M11,T1_M11,T2_M11,T3_M11,T4_M11,T5_M11,U1_M11,ZSPAN_M11,X2_M11,X0_M11,X1_M11
2022-01-14 12:00:00,,0822.5,4.98,0.00,24.2,23.3,00.0,33.5,25.9,09.0,0000.0,0006.70,0009.72,0006.37
2022-01-14 12:01:00,,0822.6,5.01,0.00,24.2,23.3,00.0,33.4,25.9,09.1,0000.0,0006.58,0009.51,0006.24
2022-01-14 12:02:00,,0822.6,4.99,0.00,24.2,23.3,00.0,33.4,25.9,09.1,0000.0,0006.50,0009.52,0006.16
2022-01-14 12:03:00,,0822.6,5.00,0.00,24.1,23.3,00.0,33.4,25.8,09.1,0000.0,0006.44,0009.75,0006.10
2022-01-14 12:04:00,,0822.6,5.00,0.00,24.1,23.3,00.0,33.4,25.8,09.0,0000.0,0006.34,0009.47,0006.04
2022-01-14 12:05:00,,0822.6,5.00,0.00,24.1,23.3,00.0,33.3,25.9,09.2,0000.0,0006.28,0009.35,0005.99
2022-01-14 12:06:00,,0822.6,5.00,0.00,24.1,23.3,00.0,33.3,25.9,09.0,0000.0,0006.21,0009.28,0005.92
2022-01-14 12:07:00,,0822.6,5.00,0.00,24.2,23.4,00.0,33.3,26.0,09.1,0000.0,0006.20,0009.40,0005.91
2022-01-14 12:08:00,,0822.6,5.00,0.00,24.2,23.5,00.0,33.3,26.0,09.2,0000.0,0006.20,0009.31,0005.91
2022-01-14 12:09:00,,0822.7,5.00,0.00,24.2,23.5,00.0,33.3,26.0,09.7,0000.0,0006.29,0009.27,0005.99
2022-01-14 12:10:00,,0822.7,4.98,0.00,24.2,23.5,00.0,33.3,26.0,09.8,0000.0,0006.43,0009.89,0006.12
2022-01-14 12:11:00,,0822.7,5.00,0.00,24.2,23.5,00.0,33.3,26.0,09.8,0000.0,0006.60,0010.73,0006.28
2022-01-14 12:12:00,,0822.7,5.01,0.00,24.2,23.5,00.0,33.3,26.0,10.0,0000.0,0006.76,0011.00,0006.42
2022-01-14 12:13:00,,0822.8,4.99,0.00,24.2,23.5,00.0,33.3,26.0,10.0,0000.0,0006.91,0011.75,0006.57
2022-01-14 12:14:00,,0822.8,5.01,0.00,24.2,23.4,00.0,33.3,25.9,09.9,0000.0,0007.05,0011.45,0006.71
2022-01-14 12:15:00,,0822.9,4.99,0.00,24.1,23.4,00.0,33.3,25.9,09.9,0000.0,0007.23,0011.73,0006.86
2022-01-14 12:16:00,,0823.0,5.01,0.00,24.1,23.4,00.0,33.2,25.9,10.0,0000.0,0007.38,0011.88,0007.02
2022-01-14 12:17:00,,0822.9,4.99,0.00,24.2,23.4,00.0,33.2,26.0,09.9,0000.0,0007.56,0012.02,0007.20
2022-01-14 12:18:00,,0823.0,5.00,0.00,24.2,23.4,00.0,33.2,26.0,09.9,0000.0,0007.74,0012.43,0007.37
2022-01-14 12:19:00,,0823.0,4.99,0.00,24.2,23.4,00.0,33.2,26.0,09.9,0000.0,0007.91,0012.76,0007.54
2022-01-14 12:20:00,,0823.1,4.99,0.00,24.2,23.5,00.0,33.2,26.0,09.8,0000.0,0008.01,0012.91,0007.63
2022-01-14 12:21:00,,0823.1,5.00,0.00,24.2,23.5,00.0,33.2,26.0,09.8,0000.0,0008.07,0012.53,0007.67
2022-01-14 12:22:00,,0823.2,5.00,0.00,24.2,23.5,00.0,33.2,25.9,09.9,0000.0,0008.13,0011.97,0007.72
2022-01-14 12:23:00,,0823.3,5.01,0.00,24.1,23.4,00.0,33.2,25.9,10.1,0000.0,0008.20,0012.26,0007.79
2022-01-14 12:24:00,,0823.3,4.98,0.00,24.1,23.3,00.0,33.2,25.8,10.7,0000.0,0008.33,0012.04,0007.91
2022-01-14 12:25:00,,0823.3,5.01,0.00,24.1,23.3,00.0,33.2,25.8,10.8,0000.0,0008.52,0012.21,0008.08
2022-01-14 12:26:00,,0823.3,4.99,0.00,24.0,23.3,00.0,33.2,25.7,10.9,0000.0,0008.74,0012.41,0008.29
2022-01-14 12:27:00,,0823.4,4.99,0.00,24.0,23.2,00.0,33.2,25.7,11.0,0000.0,0008.97,0012.60,0008.53
2022-01-14 12:28:00,,0823.4,5.01,0.00,24.0,23.2,00.0,33.1,25.7,11.0,0000.0,0009.21,0012.88,0008.75
2022-01-14 12:29:00,,0823.4,4.99,0.00,24.0,23.3,00.0,33.1,25.8,11.1,0000.0,0009.46,0012.88,0009.00
2022-01-14 12:30:00,,0823.3,5.00,0.00,24.0,23.3,00.0,33.1,25.9,11.0,0000.0,0009.73,0013.16,0009.24
2022-01-14 12:31:00,,0823.5,5.01,0.00,24.0,23.3,00.0,33.1,25.8,11.0,0000.0,0009.99,0013.43,0009.49
2022-01-14 12:32:00,,0823.6,4.98,0.00,24.0,23.3,00.0,33.1,25.7,11.1,0000.0,0010.23,0014.00,0009.76
2022-01-14 12:33:00,,0823.6,5.00,0.00,24.0,23.3,00.0,33.1,25.7,11.1,0000.6,0010.47,0014.33,0009.99
2022-01-14 12:34:00,,0823.7,5.01,0.00,24.0,23.3,00.0,33.1,25.7,11.1,0000.0,0010.70,0014.37,0010.23
2022-01-14 12:35:00,,0823.7,5.00,0.00,24.0,23.3,00.0,33.1,25.7,11.1,0000.7,0010.86,0014.21,0010.41
2022-01-14 12:36:00,,0823.7,5.00,0.00,24.0,23.3,00.0,33.1,25.7,11.2,0000.0,0010.97,0014.29,0010.53
2022-01-14 12:37:00,,0823.7,4.99,0.00,24.0,23.3,00.0,33.1,25.7,11.5,0000.0,0011.09,0014.35,0010.65
2022-01-14 12:38:00,,0823.8,5.00,0.00,23.9,23.2,00.0,33.1,25.6,11.6,0000.0,0011.23,0014.83,0010.74
2022-01-14 12:39:00,,0823.9,5.00,0.00,23.9,23.2,00.0,33.0,25.6,11.6,0000.0,0011.44,0015.22,0010.92
2022-01-14 12:40:00,,0823.9,5.00,0.00,23.9,23.2,00.0,33.0,25.6,11.7,0000.0,0011.60,0015.49,0011.06
2022-01-14 12:41:00,,0823.9,5.02,0.00,23.9,23.1,00.0,33.0,25.6,11.7,0000.0,0011.73,0015.61,0011.19
2022-01-14 12:42:00,,0823.9,5.00,0.00,23.9,23.1,00.0,33.0,25.6,11.7,0000.0,0011.86,0015.64,0011.31
2022-01-14 12:43:00,,0824.0,4.99,0.00,23.9,23.2,00.0,33.0,25.6,11.2,0000.7,0011.86,0015.45,0011.32
2022-01-14 12:44:00,,0824.0,5.00,0.00,23.9,23.2,00.0,33.0,25.6,10.9,0000.1,0011.76,0015.11,0011.24
2022-01-14 12:45:00,,0824.0,5.01,0.00,23.9,23.2,00.0,33.0,25.6,10.6,0001.2,0011.55,0015.13,0011.02
2022-01-14 12:46:00,,0824.0,5.00,0.00,23.9,23.3,00.0,33.0,25.7,10.6,0000.0,0011.34,0015.16,0010.82
2022-01-14 12:47:00,,0824.1,4.98,0.00,23.9,23.3,00.0,33.0,25.7,10.5,0000.0,0011.06,0014.82,0010.55
2022-01-14 12:48:00,,0824.1,5.01,0.00,23.9,23.3,00.0,33.0,25.7,10.4,0000.0,0010.75,0014.92,0010.24
2022-01-14 12:49:00,,0824.0,5.01,0.00,23.9,23.4,00.0,33.0,25.7,10.3,0000.0,0010.33,0014.30,0009.84
2022-01-14 12:50:00,,0824.1,4.99,0.00,23.9,23.4,00.0,33.0,25.7,10.2,0000.0,0009.77,0013.58,0009.33
2022-01-14 12:51:00,,0824.1,5.01,0.00,23.9,23.4,00.0,33.0,25.7,10.3,0000.0,0009.17,0012.77,0008.80
2022-01-14 12:52:00,,0824.1,4.98,0.00,23.9,23.4,00.0,33.0,25.7,10.3,0000.0,0008.67,0012.13,0008.34
2022-01-14 12:53:00,,0824.2,5.01,0.00,23.9,23.3,00.0,33.0,25.7,10.4,0000.0,0008.24,0011.69,0007.91
2022-01-14 12:54:00,,0824.1,5.00,0.00,23.9,23.4,00.0,33.0,25.7,10.0,0000.0,0007.65,0011.25,0007.34
2022-01-14 12:55:00,,0824.2,4.99,0.00,23.9,23.4,00.0,33.0,25.7,10.0,0000.0,0007.06,0011.19,0006.78
2022-01-14 12:56:00,,0824.2,5.00,0.00,23.9,23.3,00.0,33.0,25.7,10.0,0000.0,0006.58,0010.50,0006.31
2022-01-14 12:57:00,,0824.3,5.02,0.00,23.9,23.3,00.0,33.0,25.7,10.0,0000.0,0006.16,0009.78,0005.89
2022-01-14 12:58:00,,0824.3,4.99,0.00,23.9,23.3,00.0,33.0,25.7,10.1,0000.0,0005.72,0009.31,0005.48
2022-01-14 12:59:00,,0824.3,5.02,0.00,23.9,23.3,00.0,33.0,25.7,10.1,0000.0,0005.27,0008.50,0005.06
